Tracking 19795 objects as of 17-Jul-2019
HD Live streaming from Space Station
objects crossing your sky now

METEOR 2-17 DEB

Track METEOR 2-17 DEB now!
10-day predictions


NORAD ID: 35373
Int'l Code: 1988-005AH
Perigee: 913.7 km
Apogee: 940.0 km
Inclination: 82.5 °
Period: 103.4 minutes
Semi major axis: 7297 km
RCS: 0.0092 m2 (small)
Launch date: January 30, 1988
Source: Commonwealth of Independent States (former USSR) (CIS)
Launch site: PLESETSK MISSILE AND SPACE COMPLEX (PKMTR)

Note: This is SATELLITE DEBRIS
aabbcc
Your satellite tracking list
Your tracking list is empty




NASA's NSSDC Master Catalog

Two Line Element Set (TLE):
1 35373U 88005AH  19196.56264815  .00000685  00000-0  51933-3 0  9998
2 35373  82.5301 149.0976 0018053 334.3745  25.6523 13.92547119535136
Source of the keplerian elements: AFSPC